Saint-Nazaire, France

1:08 AM CEST on July 29, 2016 (GMT +0200)
Montoir

Weather History for LFRZ - November, 2012

Change the Weather History Date:

Sunday, November 4, 2012

  Actual Average Record
Temperature  
Mean Temperature 52 °F -  
Max Temperature 57 °F 52 °F 63 °F (2015)
Min Temperature 46 °F 41 °F 39 °F (2000)
Degree Days  
Heating Degree Days 14    
Growing Degree Days 2 (Base 50)    
Moisture  
Dew Point 44 °F    
Average Humidity 77    
Maximum Humidity 93    
Minimum Humidity 51    
Precipitation  
Precipitation 0.00 in - - ()
Sea Level Pressure  
Sea Level Pressure 29.52 in    
Wind  
Wind Speed 11 mph ()    
Max Wind Speed 28 mph    
Max Gust Speed 41 mph    
Visibility 5.8 miles    
Events Rain    
Averages and records for this station are not official NWS values.
T = Trace of Precipitation, MM = Missing Value Source: Averaged Metar Reports

Daily Weather History Graph

Daily Weather History Graph

Search for Another Location

Airport or City:

Trip Planner

Search our weather history database for the weather conditions in past years. The results will help you decide how hot, cold, wet, or windy it might be!

Date:

Astronomy

Nov. 04, 2012 Rise Set
Actual Time 7:56 AM CET 5:46 PM CET
Civil Twilight 7:24 AM CET 6:19 PM CET
Nautical Twilight 6:48 AM CET 6:55 PM CET
Astronomical Twilight 6:12 AM CET 7:31 PM CET
Moon 10:06 PM CET (11/4) 12:36 PM CET (11/4)
Length of Visible Light 10h 54m
Length of Day
9h 49m
Waning Gibbous, 74% of the Moon is Illuminated
Nov 4
Waning Gibbous
Nov 7
Last Quarter
Nov 13
New
Nov 20
First Quarter
Nov 28
Full

Hourly Weather History & Observations

Time (CET) Temp. Windchill Dew Point Humidity Pressure Visibility Wind Dir Wind Speed Gust Speed Precip Events Conditions
12:00 AM 46.4 °F 42.9 °F 44.6 °F 93% 29.59 in 6.2 mi SSE 6.9 mph - N/A   Mostly Cloudy
12:30 AM 50.0 °F - 44.6 °F 82% 29.59 in 6.2 mi Variable 2.3 mph - N/A   Overcast
1:00 AM 46.4 °F 44.3 °F 42.8 °F 87% 29.56 in 6.2 mi ESE 4.6 mph - N/A   Mostly Cloudy
1:30 AM 46.4 °F 43.5 °F 42.8 °F 87% 29.56 in 6.2 mi SE 5.8 mph - N/A   Partly Cloudy
2:00 AM 46.4 °F 41.9 °F 42.8 °F 87% 29.53 in 6.2 mi SSE 9.2 mph - N/A   Partly Cloudy
2:30 AM 46.4 °F 41.9 °F 44.6 °F 93% 29.53 in 6.2 mi SSE 9.2 mph - N/A   Unknown
3:00 AM 46.4 °F 41.1 °F 44.6 °F 93% 29.50 in 6.2 mi SSE 11.5 mph - N/A   Unknown
3:30 AM 48.2 °F - 44.6 °F 87% 29.47 in 6.2 mi SSE 10.4 mph - N/A   Scattered Clouds
4:00 AM 50.0 °F - 46.4 °F 87% 29.47 in 6.2 mi South 11.5 mph - N/A   Mostly Cloudy
4:30 AM 51.8 °F - 46.4 °F 82% 29.44 in 6.2 mi South 13.8 mph - N/A   Mostly Cloudy
5:00 AM 51.8 °F - 46.4 °F 82% 29.47 in 1.2 mi SW 27.6 mph 41.4 mph N/A Rain Light Rain
5:30 AM 53.6 °F - 48.2 °F 82% 29.44 in 6.2 mi SW 16.1 mph - N/A   Overcast
6:00 AM 51.8 °F - 48.2 °F 88% 29.44 in 6.2 mi SW 13.8 mph - N/A   Overcast
6:30 AM 53.6 °F - 48.2 °F 82% 29.44 in 6.2 mi WSW 15.0 mph - N/A   Mostly Cloudy
7:00 AM 51.8 °F - 44.6 °F 76% 29.44 in 6.2 mi West 18.4 mph - N/A Rain Light Rain
7:30 AM 53.6 °F - 46.4 °F 77% 29.44 in 6.2 mi WSW 18.4 mph - N/A Rain Light Rain
8:00 AM 51.8 °F - 44.6 °F 76% 29.47 in 6.2 mi West 12.7 mph - N/A   Overcast
8:30 AM 51.8 °F - 42.8 °F 71% 29.50 in 6.2 mi West 17.3 mph 29.9 mph N/A   Mostly Cloudy
9:00 AM 51.8 °F - 42.8 °F 71% 29.50 in 6.2 mi West 13.8 mph - N/A   Scattered Clouds
9:30 AM 51.8 °F - 41.0 °F 67% 29.53 in 6.2 mi West 15.0 mph - N/A   Mostly Cloudy
10:00 AM 51.8 °F - 41.0 °F 67% 29.53 in 6.2 mi West 12.7 mph - N/A   Mostly Cloudy
10:30 AM 53.6 °F - 39.2 °F 58% 29.53 in 6.2 mi West 10.4 mph - N/A   Unknown
11:00 AM 51.8 °F - 39.2 °F 62% 29.56 in 6.2 mi West 11.5 mph - N/A   Unknown
11:30 AM 55.4 °F - 39.2 °F 54% 29.53 in 6.2 mi West 16.1 mph - N/A   Unknown
12:00 PM 55.4 °F - 41.0 °F 58% 29.56 in 6.2 mi WSW 19.6 mph - N/A   Partly Cloudy
12:30 PM 55.4 °F - 37.4 °F 51% 29.53 in 6.2 mi WSW 20.7 mph - N/A   Partly Cloudy
1:00 PM 57.2 °F - 39.2 °F 51% 29.53 in 6.2 mi WSW 19.6 mph - N/A   Partly Cloudy
1:30 PM 57.2 °F - 39.2 °F 51% 29.53 in 6.2 mi WSW 20.7 mph - N/A   Partly Cloudy
2:00 PM 57.2 °F - 44.6 °F 63% 29.53 in 6.2 mi WSW 18.4 mph - N/A   Mostly Cloudy
2:30 PM 53.6 °F - 44.6 °F 72% 29.53 in 6.2 mi WSW 20.7 mph - N/A Rain Rain
3:00 PM 53.6 °F - 44.6 °F 72% 29.53 in 6.2 mi WSW 19.6 mph - N/A   Overcast
3:30 PM 53.6 °F - 46.4 °F 77% 29.53 in 6.2 mi SW 17.3 mph 29.9 mph N/A Rain Rain
4:00 PM 51.8 °F - 44.6 °F 76% 29.53 in 5.6 mi WSW 19.6 mph - N/A Rain Light Rain
4:30 PM 51.8 °F - 44.6 °F 76% 29.53 in 6.2 mi WSW 13.8 mph - N/A   Mostly Cloudy
5:00 PM 51.8 °F - 42.8 °F 71% 29.53 in 6.2 mi West 15.0 mph - N/A   Mostly Cloudy
5:30 PM 51.8 °F - 44.6 °F 76% 29.53 in 6.2 mi WSW 9.2 mph - N/A   Unknown
6:00 PM 51.8 °F - 44.6 °F 76% 29.53 in 6.2 mi West 11.5 mph - N/A Rain Light Rain
6:30 PM 50.0 °F - 44.6 °F 82% 29.53 in 6.2 mi WSW 11.5 mph - N/A Rain Light Rain
7:00 PM 48.2 °F - 42.8 °F 82% 29.53 in 6.2 mi WSW 9.2 mph - N/A   Scattered Clouds
7:30 PM 50.0 °F - 44.6 °F 82% 29.53 in 6.2 mi SW 9.2 mph - N/A   Mostly Cloudy
8:00 PM 50.0 °F - 42.8 °F 76% 29.53 in 6.2 mi WSW 9.2 mph - N/A   Mostly Cloudy
8:30 PM 51.8 °F - 44.6 °F 76% 29.53 in 4.3 mi WSW 17.3 mph - N/A Rain Light Rain
9:00 PM 50.0 °F - 42.8 °F 76% 29.53 in 6.2 mi NNW 5.8 mph - N/A   Mostly Cloudy
9:30 PM 48.2 °F - 42.8 °F 82% 29.53 in 6.2 mi Variable 2.3 mph - N/A Rain Light Rain
10:00 PM 46.4 °F - 42.8 °F 87% 29.53 in 6.2 mi Calm Calm - N/A   Mostly Cloudy
10:30 PM 48.2 °F - 46.4 °F 93% 29.53 in 1.7 mi Variable 3.5 mph - N/A Rain Rain
11:00 PM 48.2 °F - 46.4 °F 93% 29.56 in 1.4 mi WSW 9.2 mph 24.2 mph N/A Rain Heavy Rain
11:30 PM 50.0 °F - 44.6 °F 82% 29.56 in 6.2 mi WNW 6.9 mph - N/A Rain Light Rain